QPF
0.01 0.00 0.00 0.00 0.00 0.00 0.00 0.00 0.00 0.00 0.00 0.00 0.00 0.00 0.00 0.00 0.00 0.00 0.00 0.00 0.00 0.01 0.01 0.01 0.01 0.00 0.01 0.01 0.01 0.02 0.02 0.01 0.02 0.03 0.03 0.03 0.04 0.04 0.04 0.04 0.05 0.05 0.05 0.05
0.00 0.00 0.00 0.00 0.01 0.01 0.01 0.00 0.00 0.00 0.00 0.01 0.00 0.00 0.00 0.00 0.00 0.00 0.00 0.00 0.00 0.00 0.00 0.00 0.00 0.00 0.00 0.01 0.01 0.02 0.02 0.02 0.03 0.04 0.05 0.05 0.05 0.05 0.04 0.04 0.04 0.05 0.05 0.04
0.00 0.00 0.00 0.01 0.01 0.01 0.01 0.01 0.00 0.00 0.00 0.00 0.00 0.00 0.00 0.00 0.00 0.00 0.00 0.00 0.00 0.00 0.00 0.00 0.00 0.00 0.00 0.01 0.01 0.01 0.02 0.02 0.03 0.04 0.06 0.07 0.08 0.07 0.05 0.05 0.05 0.05 0.05 0.05
0.00 0.00 0.01 0.01 0.00 0.00 0.00 0.00 0.01 0.00 0.00 0.00 0.00 0.00 0.00 0.00 0.00 0.00 0.00 0.00 0.00 0.00 0.00 0.00 0.01 0.01 0.01 0.01 0.02 0.02 0.02 0.03 0.03 0.05 0.07 0.06 0.07 0.10 0.10 0.07 0.07 0.06 0.05 0.05
0.01 0.01 0.01 0.01 0.00 0.00 0.00 0.00 0.00 0.00 0.00 0.00 0.00 0.00 0.00 0.00 0.00 0.01 0.00 0.00 0.00 0.00 0.00 0.00 0.01 0.01 0.01 0.01 0.03 0.04 0.03 0.03 0.03 0.03 0.05 0.06 0.05 0.05 0.08 0.10 0.09 0.07 0.05 0.05
0.01 0.02 0.02 0.01 0.00 0.00 0.00 0.01 0.00 0.00 0.00 0.00 0.00 0.00 0.00 0.00 0.00 0.00 0.00 0.00 0.00 0.00 0.00 0.00 0.00 0.01 0.01 0.01 0.01 0.02 0.02 0.02 0.01 0.02 0.02 0.04 0.05 0.05 0.05 0.06 0.09 0.08 0.07 0.06
0.01 0.02 0.02 0.01 0.00 0.00 0.01 0.01 0.00 0.00 0.00 0.00 0.01 0.01 0.00 0.00 0.00 0.00 0.00 0.00 0.00 0.00 0.00 0.00 0.01 0.01 0.02 0.01 0.01 0.01 0.01 0.01 0.01 0.01 0.01 0.01 0.02 0.03 0.03 0.03 0.05 0.08 0.09 0.08
0.01 0.02 0.02 0.00 0.00 0.01 0.01 0.00 0.00 0.00 0.00 0.00 0.00 0.00 0.00 0.00 0.00 0.00 0.00 0.00 0.00 0.00 0.00 0.00 0.01 0.01 0.02 0.02 0.01 0.02 0.02 0.02 0.02 0.02 0.01 0.01 0.01 0.02 0.02 0.03 0.05 0.06 0.07 0.08
0.02 0.02 0.01 0.00 0.00 0.00 0.00 0.00 0.01 0.00 0.00 0.00 0.00 0.00 0.00 0.00 0.00 0.00 0.01 0.00 0.00 0.00 0.00 0.00 0.00 0.01 0.02 0.02 0.01 0.01 0.02 0.03 0.03 0.03 0.03 0.02 0.02 0.02 0.02 0.03 0.04 0.05 0.07 0.08
0.01 0.02 0.01 0.00 0.00 0.00 0.00 0.00 0.00 0.00 0.00 0.00 0.00 0.00 0.00 0.00 0.00 0.00 0.00 0.00 0.00 0.00 0.00 0.00 0.00 0.01 0.01 0.01 0.01 0.01 0.01 0.02 0.02 0.02 0.02 0.03 0.03 0.03 0.03 0.03 0.04 0.04 0.05 0.06
0.01 0.01 0.01 0.01 0.01 0.01 0.00 0.00 0.00 0.00 0.00 0.00 0.00 0.00 0.00 0.00 0.00 0.00 0.00 0.00 0.00 0.00 0.00 0.00 0.01 0.01 0.01 0.01 0.01 0.02 0.02 0.02 0.02 0.02 0.02 0.02 0.02 0.03 0.03 0.03 0.03 0.03 0.04 0.04
0.02 0.02 0.01 0.01 0.01 0.01 0.01 0.00 0.00 0.00 0.00 0.00 0.00 0.00 0.00 0.00 0.00 0.00 0.00 0.00 0.00 0.00 0.00 0.00 0.00 0.01 0.01 0.01 0.01 0.02 0.02 0.02 0.02 0.02 0.02 0.02 0.02 0.02 0.03 0.03 0.02 0.02 0.02 0.03
0.01 0.01 0.01 0.01 0.01 0.01 0.02 0.01 0.00 0.00 0.00 0.00 0.00 0.00 0.00 0.00 0.00 0.00 0.00 0.00 0.00 0.00 0.00 0.00 0.00 0.01 0.01 0.01 0.01 0.02 0.02 0.02 0.02 0.02 0.02 0.02 0.02 0.03 0.03 0.03 0.03 0.02 0.01 0.02
0.01 0.01 0.01 0.01 0.01 0.01 0.01 0.02 0.01 0.00 0.00 0.00 0.00 0.00 0.00 0.00 0.00 0.00 0.00 0.00 0.00 0.00 0.00 0.00 0.01 0.01 0.01 0.01 0.01 0.02 0.02 0.03 0.03 0.02 0.02 0.02 0.02 0.03 0.04 0.04 0.04 0.03 0.03 0.03
0.00 0.00 0.00 0.00 0.00 0.00 0.01 0.01 0.00 0.00 0.00 0.00 0.01 0.01 0.00 0.00 0.00 0.00 0.00 0.00 0.00 0.00 0.00 0.01 0.01 0.01 0.01 0.01 0.01 0.01 0.02 0.02 0.04 0.03 0.02 0.02 0.02 0.02 0.04 0.04 0.04 0.03 0.03 0.03
0.00 0.00 0.00 0.00 0.00 0.00 0.01 0.01 0.01 0.01 0.00 0.00 0.01 0.01 0.01 0.00 0.00 0.00 0.00 0.00 0.00 0.00 0.01 0.01 0.02 0.02 0.02 0.01 0.01 0.01 0.01 0.02 0.03 0.03 0.04 0.04 0.03 0.03 0.03 0.04 0.04 0.04 0.04 0.03
0.00 0.00 0.00 0.00 0.00 0.00 0.00 0.00 0.01 0.01 0.01 0.00 0.01 0.01 0.00 0.00 0.00 0.00 0.00 0.00 0.00 0.00 0.01 0.02 0.03 0.03 0.03 0.02 0.01 0.01 0.01 0.01 0.01 0.02 0.03 0.05 0.05 0.04 0.04 0.04 0.04 0.04 0.04 0.05
0.00 0.00 0.00 0.00 0.00 0.00 0.00 0.00 0.00 0.01 0.01 0.01 0.00 0.00 0.00 0.00 0.00 0.00 0.00 0.00 0.00 0.00 0.01 0.01 0.03 0.04 0.04 0.02 0.01 0.01 0.01 0.01 0.01 0.02 0.04 0.05 0.05 0.04 0.04 0.04 0.05 0.05 0.04 0.04
0.00 0.00 0.00 0.00 0.00 0.00 0.00 0.00 0.00 0.00 0.01 0.01 0.01 0.01 0.00 0.00 0.00 0.00 0.00 0.00 0.00 0.01 0.01 0.02 0.03 0.05 0.04 0.02 0.02 0.01 0.01 0.02 0.02 0.03 0.04 0.06 0.05 0.04 0.03 0.03 0.04 0.04 0.05 0.04
0.00 0.00 0.00 0.00 0.00 0.00 0.00 0.00 0.00 0.00 0.01 0.01 0.01 0.01 0.00 0.00 0.00 0.00 0.00 0.01 0.01 0.02 0.02 0.04 0.04 0.05 0.05 0.04 0.03 0.03 0.03 0.03 0.03 0.03 0.04 0.04 0.04 0.03 0.02 0.02 0.02 0.03 0.04 0.04
0.00 0.00 0.00 0.00 0.00 0.00 0.00 0.00 0.00 0.00 0.01 0.01 0.01 0.01 0.01 0.01 0.01 0.01 0.01 0.02 0.02 0.02 0.03 0.05 0.06 0.07 0.08 0.06 0.05 0.05 0.05 0.03 0.02 0.02 0.02 0.02 0.03 0.03 0.03 0.03 0.03 0.03 0.03 0.04
0.01 0.00 0.00 0.00 0.00 0.00 0.00 0.00 0.00 0.00 0.00 0.00 0.00 0.00 0.00 0.01 0.01 0.01 0.00 0.01 0.01 0.01 0.02 0.03 0.05 0.07 0.08 0.07 0.04 0.05 0.05 0.03 0.02 0.01 0.02 0.02 0.03 0.03 0.03 0.03 0.03 0.03 0.03 0.03
0.01 0.01 0.00 0.00 0.00 0.00 0.00 0.00 0.00 0.00 0.00 0.00 0.00 0.00 0.00 0.00 0.00 0.00 0.00 0.00 0.01 0.01 0.01 0.02 0.03 0.05 0.07 0.08 0.05 0.04 0.04 0.04 0.02 0.02 0.03 0.04 0.03 0.04 0.04 0.04 0.03 0.03 0.03 0.03
0.00 0.01 0.00 0.00 0.00 0.00 0.00 0.00 0.00 0.00 0.00 0.00 0.00 0.00 0.00 0.00 0.00 0.00 0.00 0.00 0.01 0.01 0.01 0.02 0.02 0.03 0.04 0.06 0.07 0.06 0.04 0.03 0.03 0.03 0.04 0.04 0.04 0.04 0.05 0.05 0.06 0.05 0.05 0.05
0.00 0.00 0.00 0.00 0.00 0.01 0.01 0.00 0.00 0.00 0.00 0.01 0.01 0.01 0.01 0.00 0.00 0.00 0.00 0.00 0.00 0.00 0.01 0.01 0.01 0.02 0.02 0.04 0.06 0.07 0.06 0.05 0.03 0.03 0.04 0.04 0.04 0.04 0.05 0.05 0.06 0.06 0.05 0.05
0.00 0.00 0.00 0.00 0.01 0.01 0.00 0.00 0.00 0.00 0.01 0.01 0.01 0.01 0.01 0.01 0.00 0.00 0.00 0.00 0.00 0.00 0.00 0.01 0.01 0.01 0.02 0.02 0.03 0.05 0.06 0.06 0.05 0.05 0.05 0.05 0.05 0.04 0.05 0.05 0.05 0.05 0.05 0.04
0.00 0.00 0.00 0.00 0.00 0.00 0.00 0.00 0.00 0.01 0.01 0.01 0.01 0.01 0.00 0.00 0.00 0.00 0.00 0.00 0.00 0.00 0.00 0.00 0.01 0.01 0.01 0.02 0.02 0.03 0.05 0.05 0.06 0.06 0.06 0.06 0.06 0.06 0.05 0.05 0.05 0.05 0.05 0.04
MSLP
1023.11 1023.25 1023.41 1023.60 1023.86 1024.20 1024.61 1025.07 1025.57 1026.06 1026.54 1026.99 1027.39 1027.76 1028.09 1028.39 1028.66 1028.89 1029.07 1029.19 1029.24 1029.21 1029.10 1028.92 1028.69 1028.44 1028.20 1027.97 1027.79 1027.65 1027.53 1027.42 1027.30 1027.14 1026.93 1026.65 1026.32 1025.94 1025.54 1025.15 1024.77 1024.45 1024.18 1023.97
1023.25 1023.56 1023.86 1024.16 1024.48 1024.81 1025.16 1025.51 1025.87 1026.22 1026.56 1026.89 1027.23 1027.57 1027.91 1028.26 1028.60 1028.92 1029.18 1029.38 1029.49 1029.51 1029.44 1029.29 1029.10 1028.88 1028.67 1028.50 1028.36 1028.25 1028.17 1028.09 1027.98 1027.82 1027.60 1027.29 1026.92 1026.49 1026.03 1025.57 1025.12 1024.72 1024.37 1024.08
1023.37 1023.80 1024.22 1024.61 1024.98 1025.32 1025.63 1025.92 1026.17 1026.41 1026.64 1026.89 1027.16 1027.46 1027.80 1028.17 1028.55 1028.92 1029.24 1029.50 1029.66 1029.72 1029.69 1029.59 1029.44 1029.26 1029.10 1028.97 1028.88 1028.82 1028.77 1028.72 1028.63 1028.48 1028.25 1027.93 1027.54 1027.09 1026.60 1026.09 1025.61 1025.15 1024.74 1024.39
1023.46 1023.96 1024.44 1024.88 1025.28 1025.62 1025.91 1026.14 1026.33 1026.50 1026.66 1026.85 1027.07 1027.36 1027.69 1028.08 1028.48 1028.89 1029.25 1029.55 1029.76 1029.86 1029.88 1029.82 1029.71 1029.58 1029.46 1029.37 1029.32 1029.29 1029.27 1029.24 1029.16 1029.02 1028.80 1028.49 1028.11 1027.66 1027.17 1026.67 1026.18 1025.71 1025.27 1024.87
1023.53 1024.03 1024.50 1024.93 1025.32 1025.64 1025.89 1026.09 1026.24 1026.38 1026.51 1026.68 1026.89 1027.18 1027.53 1027.93 1028.37 1028.80 1029.20 1029.54 1029.79 1029.94 1030.00 1029.98 1029.92 1029.83 1029.74 1029.68 1029.65 1029.64 1029.64 1029.61 1029.55 1029.42 1029.21 1028.92 1028.57 1028.15 1027.70 1027.24 1026.77 1026.32 1025.89 1025.48
1023.56 1023.98 1024.38 1024.75 1025.08 1025.35 1025.57 1025.74 1025.88 1026.01 1026.16 1026.34 1026.58 1026.89 1027.27 1027.71 1028.18 1028.65 1029.09 1029.47 1029.76 1029.95 1030.06 1030.08 1030.05 1030.00 1029.95 1029.90 1029.88 1029.88 1029.87 1029.84 1029.78 1029.66 1029.47 1029.21 1028.90 1028.54 1028.15 1027.75 1027.34 1026.95 1026.55 1026.16
1023.52 1023.82 1024.10 1024.36 1024.60 1024.81 1024.99 1025.14 1025.29 1025.44 1025.62 1025.85 1026.14 1026.50 1026.93 1027.41 1027.92 1028.43 1028.91 1029.32 1029.65 1029.89 1030.03 1030.10 1030.11 1030.09 1030.06 1030.03 1030.01 1030.00 1029.98 1029.95 1029.88 1029.77 1029.60 1029.38 1029.11 1028.81 1028.50 1028.18 1027.85 1027.53 1027.19 1026.84
1023.37 1023.53 1023.68 1023.83 1023.97 1024.11 1024.25 1024.40 1024.56 1024.75 1024.98 1025.26 1025.61 1026.03 1026.51 1027.04 1027.58 1028.12 1028.63 1029.08 1029.44 1029.71 1029.90 1030.01 1030.06 1030.07 1030.06 1030.05 1030.03 1030.02 1030.00 1029.96 1029.89 1029.79 1029.64 1029.45 1029.24 1029.00 1028.76 1028.52 1028.28 1028.03 1027.76 1027.45
1023.11 1023.15 1023.18 1023.22 1023.28 1023.37 1023.49 1023.64 1023.82 1024.05 1024.34 1024.67 1025.08 1025.54 1026.05 1026.60 1027.17 1027.73 1028.25 1028.71 1029.10 1029.41 1029.63 1029.78 1029.87 1029.92 1029.95 1029.96 1029.96 1029.96 1029.94 1029.91 1029.85 1029.75 1029.63 1029.48 1029.31 1029.13 1028.96 1028.78 1028.61 1028.42 1028.22 1027.97
1022.75 1022.71 1022.66 1022.64 1022.65 1022.72 1022.83 1022.99 1023.20 1023.46 1023.78 1024.15 1024.58 1025.06 1025.58 1026.13 1026.69 1027.24 1027.75 1028.22 1028.62 1028.95 1029.21 1029.40 1029.54 1029.64 1029.71 1029.76 1029.79 1029.82 1029.82 1029.81 1029.77 1029.70 1029.60 1029.48 1029.35 1029.21 1029.08 1028.96 1028.83 1028.70 1028.54 1028.33
1022.34 1022.26 1022.19 1022.16 1022.17 1022.24 1022.36 1022.54 1022.77 1023.05 1023.38 1023.75 1024.17 1024.63 1025.12 1025.63 1026.15 1026.67 1027.16 1027.61 1028.01 1028.36 1028.64 1028.88 1029.07 1029.22 1029.34 1029.45 1029.53 1029.60 1029.64 1029.66 1029.65 1029.61 1029.54 1029.45 1029.35 1029.24 1029.14 1029.04 1028.94 1028.84 1028.72 1028.55
1021.94 1021.89 1021.85 1021.84 1021.89 1021.99 1022.14 1022.34 1022.58 1022.85 1023.16 1023.50 1023.87 1024.27 1024.70 1025.14 1025.60 1026.05 1026.50 1026.92 1027.32 1027.67 1027.98 1028.25 1028.49 1028.70 1028.88 1029.05 1029.19 1029.31 1029.40 1029.47 1029.49 1029.49 1029.45 1029.38 1029.30 1029.20 1029.11 1029.02 1028.93 1028.85 1028.74 1028.60
1021.62 1021.62 1021.65 1021.72 1021.83 1021.97 1022.15 1022.36 1022.59 1022.84 1023.10 1023.38 1023.67 1023.98 1024.32 1024.68 1025.06 1025.45 1025.84 1026.23 1026.61 1026.96 1027.29 1027.60 1027.88 1028.14 1028.38 1028.60 1028.79 1028.97 1029.11 1029.22 1029.28 1029.31 1029.29 1029.25 1029.17 1029.08 1028.99 1028.90 1028.81 1028.73 1028.64 1028.53
1021.40 1021.50 1021.62 1021.77 1021.95 1022.14 1022.35 1022.56 1022.76 1022.96 1023.15 1023.34 1023.54 1023.76 1024.00 1024.27 1024.57 1024.90 1025.25 1025.61 1025.97 1026.33 1026.68 1027.01 1027.32 1027.62 1027.90 1028.16 1028.39 1028.60 1028.78 1028.92 1029.02 1029.07 1029.08 1029.04 1028.97 1028.88 1028.78 1028.68 1028.59 1028.50 1028.42 1028.34
1021.31 1021.49 1021.71 1021.95 1022.19 1022.43 1022.65 1022.84 1023.01 1023.14 1023.26 1023.36 1023.47 1023.60 1023.76 1023.95 1024.19 1024.48 1024.79 1025.13 1025.49 1025.85 1026.21 1026.55 1026.89 1027.20 1027.50 1027.78 1028.03 1028.26 1028.46 1028.62 1028.73 1028.80 1028.81 1028.78 1028.71 1028.62 1028.51 1028.40 1028.30 1028.21 1028.14 1028.09
1021.30 1021.57 1021.88 1022.19 1022.48 1022.75 1022.97 1023.14 1023.25 1023.33 1023.37 1023.39 1023.43 1023.49 1023.59 1023.74 1023.95 1024.21 1024.52 1024.86 1025.22 1025.58 1025.95 1026.30 1026.63 1026.94 1027.24 1027.51 1027.76 1027.99 1028.18 1028.34 1028.45 1028.52 1028.53 1028.50 1028.43 1028.32 1028.20 1028.08 1027.97 1027.88 1027.82 1027.79
1021.34 1021.69 1022.06 1022.42 1022.75 1023.03 1023.23 1023.37 1023.44 1023.46 1023.44 1023.41 1023.40 1023.43 1023.51 1023.65 1023.86 1024.12 1024.44 1024.80 1025.17 1025.54 1025.91 1026.25 1026.57 1026.87 1027.14 1027.39 1027.62 1027.82 1027.99 1028.13 1028.22 1028.28 1028.28 1028.24 1028.15 1028.03 1027.90 1027.76 1027.64 1027.54 1027.48 1027.47
1021.38 1021.79 1022.20 1022.60 1022.94 1023.21 1023.40 1023.50 1023.54 1023.52 1023.47 1023.42 1023.39 1023.42 1023.51 1023.67 1023.91 1024.21 1024.55 1024.93 1025.32 1025.70 1026.06 1026.40 1026.70 1026.96 1027.20 1027.41 1027.60 1027.76 1027.90 1028.01 1028.08 1028.11 1028.09 1028.03 1027.92 1027.78 1027.62 1027.46 1027.32 1027.21 1027.14 1027.13
1021.38 1021.82 1022.27 1022.68 1023.02 1023.28 1023.44 1023.52 1023.54 1023.50 1023.44 1023.40 1023.39 1023.45 1023.58 1023.79 1024.07 1024.42 1024.80 1025.21 1025.61 1026.00 1026.35 1026.67 1026.94 1027.17 1027.37 1027.54 1027.68 1027.81 1027.91 1027.98 1028.02 1028.02 1027.98 1027.89 1027.75 1027.58 1027.39 1027.20 1027.02 1026.87 1026.78 1026.75
1021.32 1021.79 1022.25 1022.66 1022.99 1023.23 1023.38 1023.44 1023.45 1023.42 1023.38 1023.37 1023.41 1023.52 1023.71 1023.97 1024.31 1024.70 1025.12 1025.55 1025.96 1026.34 1026.68 1026.98 1027.22 1027.42 1027.58 1027.71 1027.83 1027.92 1027.99 1028.03 1028.04 1028.01 1027.93 1027.80 1027.63 1027.42 1027.18 1026.94 1026.71 1026.52 1026.39 1026.32
1021.21 1021.69 1022.15 1022.55 1022.86 1023.09 1023.22 1023.29 1023.30 1023.30 1023.30 1023.34 1023.44 1023.61 1023.86 1024.19 1024.57 1025.00 1025.44 1025.88 1026.29 1026.66 1026.98 1027.24 1027.46 1027.63 1027.77 1027.88 1027.96 1028.03 1028.08 1028.10 1028.08 1028.02 1027.90 1027.74 1027.52 1027.26 1026.97 1026.67 1026.39 1026.14 1025.95 1025.82
1021.07 1021.56 1022.00 1022.38 1022.67 1022.88 1023.01 1023.08 1023.12 1023.16 1023.21 1023.32 1023.48 1023.72 1024.03 1024.40 1024.82 1025.26 1025.71 1026.15 1026.54 1026.89 1027.18 1027.42 1027.61 1027.76 1027.88 1027.97 1028.05 1028.10 1028.13 1028.14 1028.10 1028.01 1027.86 1027.65 1027.39 1027.07 1026.72 1026.37 1026.02 1025.71 1025.47 1025.29
1020.93 1021.40 1021.82 1022.17 1022.44 1022.63 1022.76 1022.86 1022.93 1023.02 1023.13 1023.30 1023.53 1023.83 1024.19 1024.60 1025.04 1025.49 1025.92 1026.33 1026.70 1027.01 1027.27 1027.48 1027.65 1027.78 1027.89 1027.98 1028.05 1028.10 1028.13 1028.12 1028.06 1027.95 1027.77 1027.52 1027.21 1026.85 1026.45 1026.04 1025.64 1025.28 1024.99 1024.77
1020.81 1021.25 1021.63 1021.95 1022.19 1022.37 1022.51 1022.62 1022.74 1022.88 1023.06 1023.29 1023.59 1023.94 1024.34 1024.77 1025.22 1025.65 1026.07 1026.44 1026.77 1027.05 1027.27 1027.45 1027.60 1027.72 1027.82 1027.90 1027.98 1028.03 1028.05 1028.03 1027.97 1027.83 1027.63 1027.35 1027.01 1026.61 1026.17 1025.72 1025.29 1024.90 1024.57 1024.33
1020.71 1021.11 1021.45 1021.72 1021.93 1022.10 1022.25 1022.39 1022.55 1022.75 1022.99 1023.29 1023.65 1024.05 1024.48 1024.92 1025.37 1025.79 1026.17 1026.51 1026.80 1027.03 1027.22 1027.37 1027.50 1027.60 1027.70 1027.78 1027.85 1027.91 1027.93 1027.91 1027.83 1027.69 1027.47 1027.17 1026.81 1026.39 1025.94 1025.48 1025.04 1024.64 1024.31 1024.07
1020.62 1020.97 1021.26 1021.49 1021.68 1021.84 1022.00 1022.17 1022.38 1022.63 1022.94 1023.30 1023.71 1024.15 1024.61 1025.06 1025.50 1025.91 1026.26 1026.57 1026.81 1027.01 1027.17 1027.30 1027.40 1027.49 1027.58 1027.66 1027.73 1027.79 1027.81 1027.78 1027.70 1027.55 1027.33 1027.04 1026.68 1026.27 1025.82 1025.38 1024.95 1024.57 1024.27 1024.04
1020.53 1020.83 1021.07 1021.27 1021.43 1021.59 1021.76 1021.97 1022.22 1022.53 1022.89 1023.31 1023.77 1024.24 1024.73 1025.20 1025.63 1026.02 1026.36 1026.63 1026.85 1027.02 1027.15 1027.26 1027.35 1027.43 1027.51 1027.59 1027.66 1027.71 1027.73 1027.71 1027.63 1027.49 1027.28 1027.00 1026.66 1026.28 1025.88 1025.47 1025.09 1024.75 1024.48 1024.29
Thickness
5688 5692 5692 5690 5689 5691 5688 5689 5681 5685 5682 5685 5689 5689 5688 5687 5685 5681 5677 5674 5671 5667 5665 5663 5662 5661 5659 5657 5656 5655 5653 5651 5649 5649 5648 5647 5647 5647 5647 5647 5646 5646 5644 5643
5678 5687 5687 5683 5687 5688 5686 5684 5682 5682 5676 5686 5687 5685 5682 5679 5676 5671 5669 5667 5665 5663 5660 5658 5657 5655 5653 5652 5651 5649 5646 5644 5643 5642 5641 5640 5639 5639 5639 5638 5638 5638 5637 5636
5665 5679 5678 5670 5679 5682 5678 5679 5677 5669 5671 5679 5675 5673 5672 5671 5668 5665 5662 5659 5658 5657 5655 5653 5652 5651 5648 5647 5645 5643 5640 5638 5637 5635 5634 5633 5632 5631 5630 5630 5630 5630 5629 5629
5660 5662 5648 5661 5679 5680 5673 5670 5672 5671 5671 5670 5668 5667 5668 5667 5663 5659 5656 5654 5652 5651 5650 5649 5648 5647 5644 5641 5639 5636 5633 5631 5630 5628 5626 5626 5624 5623 5622 5623 5623 5622 5622 5622
5652 5648 5650 5659 5665 5665 5661 5657 5664 5662 5661 5661 5663 5661 5658 5660 5658 5654 5651 5649 5648 5647 5647 5645 5643 5641 5638 5635 5632 5629 5627 5625 5624 5623 5621 5619 5617 5616 5616 5616 5615 5615 5615 5615
5645 5639 5636 5644 5659 5665 5657 5643 5656 5656 5653 5652 5651 5641 5642 5650 5650 5648 5646 5644 5642 5641 5640 5638 5637 5635 5631 5628 5625 5622 5621 5620 5619 5618 5615 5613 5612 5610 5610 5609 5609 5608 5608 5608
5635 5632 5634 5643 5653 5655 5634 5631 5644 5647 5646 5645 5639 5637 5639 5643 5642 5641 5639 5637 5636 5634 5631 5630 5629 5627 5623 5621 5618 5618 5616 5615 5613 5612 5610 5608 5606 5605 5603 5602 5601 5601 5601 5601
5630 5623 5622 5637 5641 5633 5629 5638 5639 5639 5638 5636 5634 5634 5634 5633 5632 5632 5630 5629 5627 5625 5622 5622 5622 5619 5615 5613 5612 5612 5610 5608 5606 5605 5604 5603 5600 5598 5597 5595 5593 5592 5592 5592
5624 5618 5624 5631 5630 5631 5633 5630 5630 5630 5630 5628 5626 5624 5624 5623 5623 5623 5621 5620 5618 5616 5614 5614 5613 5611 5608 5606 5605 5604 5602 5600 5599 5598 5597 5595 5593 5591 5589 5588 5586 5585 5584 5584
5619 5618 5620 5623 5624 5625 5625 5622 5622 5623 5622 5620 5617 5616 5615 5614 5613 5613 5612 5610 5609 5607 5605 5604 5604 5603 5601 5599 5597 5595 5593 5592 5591 5589 5588 5586 5585 5584 5582 5580 5578 5577 5577 5577
5610 5611 5613 5613 5614 5615 5615 5615 5614 5614 5613 5611 5609 5608 5606 5605 5604 5603 5602 5601 5600 5598 5596 5595 5595 5593 5592 5590 5589 5586 5584 5583 5582 5580 5578 5577 5576 5575 5574 5573 5571 5570 5569 5569
5600 5605 5603 5603 5606 5606 5605 5604 5604 5603 5602 5602 5600 5599 5598 5596 5595 5594 5593 5592 5591 5589 5588 5586 5585 5584 5583 5582 5580 5578 5576 5574 5572 5571 5569 5568 5566 5564 5565 5565 5564 5564 5563 5561
5600 5601 5599 5598 5598 5598 5596 5596 5595 5594 5593 5592 5591 5590 5588 5586 5585 5584 5583 5582 5581 5580 5579 5577 5576 5575 5574 5573 5571 5569 5566 5564 5562 5561 5559 5558 5557 5555 5554 5554 5554 5554 5554 5553
5594 5591 5588 5589 5587 5588 5588 5587 5586 5585 5584 5583 5581 5579 5578 5576 5574 5573 5572 5572 5571 5570 5569 5568 5567 5565 5564 5563 5561 5559 5557 5555 5552 5551 5550 5549 5548 5548 5547 5547 5546 5545 5545 5545
5586 5584 5582 5582 5580 5579 5578 5576 5574 5573 5572 5571 5570 5568 5567 5565 5563 5563 5562 5562 5561 5560 5559 5557 5555 5554 5554 5553 5551 5549 5547 5544 5543 5542 5541 5541 5540 5539 5539 5539 5538 5538 5537 5536
5577 5576 5574 5572 5571 5570 5569 5567 5564 5563 5562 5560 5558 5557 5556 5555 5553 5552 5552 5551 5549 5547 5546 5546 5544 5543 5543 5542 5540 5538 5537 5536 5535 5533 5532 5532 5531 5531 5530 5529 5529 5528 5528 5528
5566 5564 5564 5563 5563 5563 5561 5559 5557 5554 5552 5550 5549 5547 5546 5545 5543 5541 5540 5540 5538 5537 5536 5534 5532 5532 5532 5531 5529 5528 5527 5526 5525 5524 5523 5523 5522 5522 5521 5520 5520 5520 5520 5520
5562 5561 5560 5558 5556 5555 5554 5552 5550 5547 5544 5541 5539 5538 5536 5534 5532 5531 5529 5529 5527 5526 5524 5523 5522 5521 5521 5519 5518 5518 5517 5516 5516 5515 5514 5514 5513 5513 5513 5512 5511 5511 5511 5511
5556 5555 5554 5552 5550 5548 5546 5543 5541 5539 5536 5533 5530 5528 5526 5524 5523 5521 5519 5518 5516 5514 5512 5511 5510 5510 5509 5508 5508 5507 5507 5507 5507 5506 5506 5505 5503 5503 5502 5502 5502 5502 5502 5502
5549 5548 5546 5545 5543 5541 5538 5536 5534 5531 5528 5525 5522 5519 5517 5515 5513 5511 5509 5507 5505 5504 5503 5501 5500 5499 5498 5497 5497 5497 5497 5497 5496 5496 5495 5495 5494 5494 5494 5494 5493 5494 5494 5493
5541 5540 5538 5536 5534 5533 5531 5529 5526 5522 5519 5517 5513 5510 5508 5506 5504 5502 5500 5497 5496 5495 5493 5491 5490 5488 5488 5487 5486 5486 5487 5487 5486 5486 5485 5485 5484 5484 5484 5484 5484 5485 5485 5485
5534 5532 5530 5528 5526 5524 5523 5521 5518 5514 5511 5508 5505 5502 5499 5497 5495 5492 5491 5488 5487 5485 5483 5482 5480 5479 5478 5477 5476 5476 5476 5477 5476 5476 5475 5475 5474 5474 5474 5474 5474 5475 5475 5475
5526 5524 5522 5520 5518 5516 5514 5511 5509 5506 5502 5500 5497 5494 5491 5489 5486 5484 5481 5480 5478 5476 5474 5473 5471 5470 5469 5467 5467 5466 5467 5467 5467 5466 5466 5465 5465 5464 5464 5464 5464 5465 5465 5464
5518 5516 5513 5512 5510 5507 5504 5502 5499 5497 5494 5492 5489 5486 5484 5480 5478 5476 5474 5472 5470 5468 5466 5464 5463 5462 5460 5459 5459 5458 5458 5458 5457 5457 5456 5456 5455 5455 5455 5455 5455 5455 5455 5455
5510 5507 5505 5502 5500 5498 5496 5494 5491 5488 5485 5483 5480 5478 5475 5473 5470 5468 5465 5463 5462 5460 5458 5457 5455 5454 5452 5451 5450 5449 5449 5448 5448 5447 5446 5446 5445 5445 5445 5445 5445 5445 5445 5445
5501 5499 5496 5495 5493 5490 5488 5484 5481 5479 5476 5474 5471 5469 5467 5464 5462 5460 5458 5456 5454 5452 5450 5448 5447 5445 5444 5443 5442 5441 5440 5439 5438 5437 5436 5436 5436 5436 5436 5436 5436 5435 5435 5435
5493 5490 5488 5486 5484 5481 5478 5476 5473 5470 5468 5465 5462 5460 5457 5456 5454 5452 5450 5448 5446 5444 5442 5440 5438 5437 5435 5434 5433 5432 5431 5430 5429 5428 5428 5427 5427 5426 5426 5426 5425 5425 5425 5425